Miscellaneous Local Product
Issued by NWS North Platte, NE

Home | Current Version | Previous Version | Graphics & Text | Print | Product List | Glossary On
Versions: 1 2 3 4 5 6 7 8 9 10 11 12 13 14 15 16 17 18 19 20 21 22 23 24 25 26 27 28 29 30 31 32 33 34 35 36 37 38 39 40 41 42 43 44 45 46 47 48 49 50
000
AXUS43 KLBF 251410
MISLBF


WESTERN AND NORTH CENTRAL NEBRASKA HOURLY WEATHER ROUNDUP
NATIONAL WEATHER SERVICE NORTH PLATTE NE
800 AM CST THU DEC 25 2014

***STATIONS NOT REPORTING VARIABLES SUCH AS SKY/WEATHER OR
PRESSURE ARE PROVIDED BY THE NEBRASKA DEPARTMENT OF
ROADS...RAWS...AND APRS NETWORKS...AND ARE NOT UNDER
NATIONAL WEATHER SERVICE QUALITY CONTROL***

...OBSERVATIONS IN AND NEAR THE EASTERN PANHANDLE OF NEBRASKA...

CITY           SKY/WX    TMP DP  RH WIND       PRES   REMARKS
PINE RIDGE     CLOUDY    30  26  85 N10       29.55R WCI  21
CHADRON        CLOUDY    30  27  88 NE8       29.56R WCI  22
ALLIANCE       CLOUDY    29  25  85 N16       29.48R WCI  17
SIDNEY         CLOUDY    32  24  72 NE10      29.42S WCI  24
WHITECLAY        N/A     28  25  89 E6          N/A  WCI  21
CRESCENT LAKE    N/A     28  23  81 NE7         N/A  WCI  21
LISCO            N/A     32  23  69 CALM        N/A
BIG SPRINGS      N/A     28  26  90 W3          N/A
$$

...OBSERVATIONS IN NORTH CENTRAL NEBRASKA...

CITY           SKY/WX    TMP DP  RH WIND       PRES   REMARKS
VALENTINE      CLOUDY    30  23  75 NE16      29.51S WCI  19
THEDFORD       MOCLDY    27  23  84 CALM      29.48S
AINSWORTH      MOCLDY    28  26  90 N3        29.50R
O`NEILL        PTCLDY    27  26  96 CALM      29.53R
ORD            CLEAR     22  20  92 CALM      29.51R
BROKEN BOW     CLEAR     23  19  85 NE3       29.48S
BROWNLEE         N/A     33  25  72 N13         N/A  WCI  24
BREWSTER         N/A     26  24  94 CALM        N/A
ROSE             N/A     32  30  92 CALM        N/A
COMSTOCK         N/A     28  24  84 CALM        N/A
$$

...OBSERVATIONS IN SOUTHWEST NEBRASKA AND FAR NORTHEAST COLORADO...

CITY           SKY/WX    TMP DP  RH WIND       PRES   REMARKS
WRAY           FAIR      25  23  91 SW5       29.41R WCI  20
HOLYOKE        FAIR      30  27  86 N9        29.41F WCI  22
IMPERIAL       MOCLDY    24  19  81 N5        29.43R WCI  18
OGALLALA       MOCLDY    24  22  94 CALM      29.44R
NORTH PLATTE   MOCLDY    26  21  81 E5        29.44F WCI  20
MCCOOK         PTCLDY    22  18  85 NE5       29.45R WCI  16
LEXINGTON      PTCLDY    27  22  82 E7        29.47S WCI  20
PAXTON           N/A     25  23  92 CALM        N/A
GOTHENBURG       N/A     24  19  81 E3          N/A
CALLAWAY         N/A     28  24  83 NE6         N/A  WCI  22
$$

...NORTH PLATTE AREA...

CITY           SKY/WX    TMP DP  RH WIND       PRES   REMARKS
AIRPORT        MOCLDY    26  21  81 E5        29.44F WCI  20
$$

...SOME WEATHER OBSERVATIONS FROM AROUND THE REGION...

CITY           SKY/WX    TMP DP  RH WIND       PRES   REMARKS
DENVER         PTCLDY    33  18  53 E8        29.38R WCI  26
LARAMIE        MOCLDY    32  21  64 SW17      29.42R WCI  21
CHEYENNE       CLOUDY    31  20  63 N3        29.44R
SCOTTSBLUFF    CLOUDY    33  27  78 NE21      29.44R WCI  21
RAPID CITY     LGT SNOW  30  28  92 N14       29.62R FOG     WCI  19
PIERRE         LGT SNOW  32  31  96 NE9       29.61R FOG     WCI  24
WINNER         FAIR      27  23  85 N8        29.56S WCI  19
SIOUX FALLS    MOCLDY    28  25  88 NE9       29.59R WCI  19
OMAHA          CLOUDY    32  27  81 S13       29.66R WCI  22
GRAND ISLAND   PTCLDY    29  22  75 SE7       29.54S WCI  22
KANSAS CITY    MOCLDY    34  26  72 S16       29.78S WCI  24
WICHITA        PTCLDY    38  24  57 S25G32    29.67S WCI  27
HAYS           PTCLDY    30  16  55 S14       29.50S WCI  20
LIBERAL        MOCLDY    32  19  59 S9        29.52S WCI  24
GOODLAND       CLOUDY    29  23  78 W9        29.40S WCI  20
$$



USA.gov is the U.S. government's official web portal to all federal, state and local government web resources and services.